DELTA 1 DEB, 21459

Orbit data source: Space-Track

DELTA 1 DEB, 21459 is space debris in SSO originally from a launch on Thu, 12 Jun 1975 UTC launched from the Air Force Western Test Range (AFWTR). Debris objects in space refer to the collection of defunct objects orbiting the Earth. Examples of debris include non-operational satellites, rocket bodies, and fragments generated from explosions, collisions, or faulty payload assembly.

Loading next visibility...
Identifier
21459, 1975-052ET
Orbit
SSO
Country
Flag of USUS
Related business
Manufacturer
Unknown
Mission
Spacecraft
Bus & Motor
Unknown
Mass
Unknown
Launch date (UTC)
1975-06-12 (50 years ago)
Launch vehicle
Unknown
Launch site
Air Force Western Test Range (AFWTR)
Object type
Payload
Rocket body
Debris
Shape & HBR
Unknown shape, 0.2 m
Radar Cross Section
Small (<0.1 m²)

Expand to show TLE details & history
Last TLE update: 10 hours ago

TLE from 10 hours ago
0 DELTA 1 DEB
1 21459U 75052ET  25287.73984919  .00000198  00000-0  42923-3 0  9995
2 21459  99.6681 110.5771 0052275 348.6799  24.3795 13.41306009684185
Epoch: 2025-10-14T17:45Z
TLE epoch observation values (Epoch: 2025-10-14T17:45:22.970Z)
Latitude
13.08172°
Longitude
178.45038°
Altitude
1,070.849 km
Speed
7.335 km/s
True Right ascension
07h 13m 16s
True Declination
13° 00' 33"
Sunlit
Object was in daylight at epoch
Visualization orbit readout
Latitude
Unknown
Longitude
Unknown
Altitude
Unknown
Speed
Unknown
Apparent Right ascension
Unknown
Apparent Declination
Unknown
Sunlit
N/A
Visualization observer readout
Local Sidereal Time
22:14:26
Azimuth
Unknown
Elevation
Unknown
Doppler factor
Unknown
Orbital elements
Apogee altitude
1,140.83 km
Perigee altitude
1,062.628 km
Semi-major axis
7,479.866 km
Eccentricity
0.00523
Inclination
99.6681°
RAAN
110.5771°
Arg. of periapsis
348.6799°
True anomaly
24.62824°
Mean anomaly
24.3795°
Eccentric anomaly
24.50372°
Mean motion
3.35508 °/min
Orbital period
107.3 mins
BSTAR
0.00042923
Loading maneuver chart data...
Computing Atmospheric mass density...
Loading historical data...
Loading historical data...
Loading historical data...
Loading historical data...
Loading historical data...
Loading historical data...
Loading historical data...

Documentation

Showing up to 5 results
|